Retour au catalogue

CRRES DEB

CANISTER

ActifHEO
NORAD 21589·DEBRIS·🇺🇸 United States

Lancé Jul 25, 1990 depuis Cape Canaveral Space Force Station

Loading…

Prochains Passages (prochaines 24 heures)

TLE

FraisSource: Space-Track

Époque: Sep 14, 2026, 09:06 UTC

1 21589U 90065E   26257.37953963  .00000622  00000-0  86217-3 0  9999
2 21589  17.6976 222.8939 6939785  21.2852 357.0754  2.66561943133577

Suivez CRRES DEB en temps réel avec AllMySat

Download on the App Store